Rbgn^[z[y[W
メイン
   新天体発見情報
     Comet C/2020 K3 (Leonard)
投稿するにはまず登録を

スレッド表示 | 新しいものから 前のトピック | 次のトピック | 下へ
投稿者 スレッド
佐藤裕久
投稿日時: 2020-6-28 14:19
モデレータ
登録日: 2005-6-12
居住地: 日本
投稿: 2505
オンライン
Comet C/2020 K3 (Leonard)

Gregory J. Leonard (アリゾナ大学, 惑星科学学科)の通報によると、5月22日UT、Catalina 
Skyサーベイの0.68-m Schmidt反射望遠鏡で得たCCD画像から彗星を発見した。
この彗星は、拡散した6"-8"のコマがあるが、30秒の追加露出4枚にも尾は確認できなかった。
小惑星センターのPCCP webpageに公表後、A. ValvasoriとE. Guido (iTelescope天文台,
5月23.4日UT、フィルターなし55秒露出12枚のスタック, 0.50-m f/6.8 反射望遠鏡, Mayhill
近郊, カリフォルニア州, 遠隔操作:拡散状で約15"の不規則なコマが見えた。光度は17.7等)
や佐藤英貴氏(東京都文京区, iTelescope天文台, 5月23.4日UT、60秒露出14枚のスタック, 
0.43-m f/6.8 アストログラフ, Mayhill近郊, カリフォルニア州, 遠隔操作:強く集光した23" 
のコマとp.a.330-10°(左回りのねじれ)に向かって20"伸びた扇のような尾が見えた。13".4の
円形範囲で測定した光度は17.1等であった)らCCD位置観測者によって彗星状と観測された。

彗星機能の追加報告は次の通り:

OC   Date        Reporter           Coma    Tail    PA          Exposures
L01  2020-05-23  K. Korlevic         8"             
J95  2020-05-23  P. Birtwhistle      7"      7"     300         102x12s
H06  2020-05-23  H. Sato            25"     20"     330-10       14x60s
H06  2020-05-23  E. Guido           15"                          20x55s
P87  2020-05-23  K. Yoshimoto       35"                          13x60s
N88  2020-05-23  Q.-Z. Ye            4"      8"     240-260
G40  2020-05-23  N. Paul            33"                          4x150s
J95  2020-05-25  P. Birtwhistle     12"                         150x16s

発見位置は次のとおり、

     2020 UT             R.A. (2000) Decl.       Mag.   Observer
     May  22.44891    0 12 09.24   +35 46 55.7   18.0   Leonard
          22.45432    0 12 09.05   +35 47 06.5   17.6     "
          22.45974    0 12 08.85   +35 47 18.6   17.8     "
          22.46515    0 12 08.43   +35 47 30.0   17.7     "

MPCの暫定放物線軌道要素と位置推算表は次のとおり、

Orbital elements:
    C/2020 K3 (Leonard)                                                         
T 2020 June 1.00320 TT                                  Rudenko                 
q   1.5830691            (2000.0)            P               Q                  
                   Peri.   64.49239     +0.64880324     -0.66549768             
                   Node    28.35460     -0.55003833     -0.74524070             
e   1.0            Incl.  129.01520     +0.52584427     +0.04158285             
From 51 observations 2020 May 22-25.                                            
                                                                                
Ephemeris:
Date    TT    R. A. (2000) Decl.     Delta      r    Elong.  Phase   m1
2020 04 25    00 22 46.4 +23 29 46   2.4866  1.6614    27.6    16.3  18.7
...
2020 05 10    00 19 22.8 +29 30 54   2.2440  1.6113    40.3    23.9  18.3
...
2020 05 18    00 15 24.3 +33 22 44   2.0966  1.5946    47.3    27.8  18.1
...
2020 05 24    00 10 47.4 +36 40 05   1.9809  1.5869    52.7    30.5  18.0
2020 05 25    00 09 50.4 +37 15 12   1.9614  1.5860    53.6    30.9  18.0
2020 05 26    00 08 49.9 +37 51 00   1.9418  1.5852    54.5    31.4  17.9
...
2020 06 01    00 01 16.1 +41 40 46   1.8243  1.5831    60.0    33.7  17.8
...
2020 06 09    23 45 29.1 +47 30 02   1.6714  1.5868    67.4    36.2  17.6
...
2020 06 24    22 37 16.3 +60 07 08   1.4283  1.6139    80.7    38.4  17.4

(MPEC 2020-K159、CBET 4782)

スレッド表示 | 新しいものから 前のトピック | 次のトピック | トップ

投稿するにはまず登録を
 
© 1999 Tsutomu Seki.